Location: Hines Observatory
(31.5604°N, 83.5172°W)
Time: 11:00:57
(UTC-04:00)

Daily predictions for brighter satellites

Satellite Brightness Start Highest point End
(mag) Time Altitude Azimuth Time Altitude Azimuth Time Altitude Azimuth
Meteor 2-10 Rocket 3.9 20:47:15 10° N 20:52:54 57° E 20:58:20 10° SSE
SEDSat Delta rocket 3.3 20:51:11 10° WSW 20:55:52 51° SSE 21:00:03 10° E
FengYun 1-2 T 4.3 20:51:20 10° SSE 20:56:57 84° ENE 21:02:38 10° NNW
Cosmos 1782 3.8 20:53:29 10° NNE 20:56:59 28° E 21:00:31 10° SE
Cosmos 1844 Rocket 2.9 20:53:07 10° SSW 20:58:46 79° WNW 21:04:26 10° NNE
Cosmos 1825 3.7 20:58:24 10° SE 21:01:03 18° E 21:03:43 10° NE
FENGYUN 3A 3.8 20:56:18 10° SSE 21:01:34 57° ENE 21:06:50 10° N
Cosmos 2278 Rocket 2.4 20:58:10 10° S 21:03:36 50° ESE 21:09:04 10° NNE
Atlas Centaur 2 1.3 21:02:29 10° W 21:06:18 56° SSW 21:09:39 11° ESE
ERS-1 Rocket 4.1 21:03:36 10° SE 21:07:42 26° ENE 21:11:47 10° NNE
COSMOS 2406 3.3 21:04:33 10° NNW 21:10:19 89° WSW 21:16:00 10° SSE
Cosmos 1844 3.8 21:04:34 10° SSW 21:10:19 86° WNW 21:16:09 10° NNE
ISS -0.3 21:09:09 10° W 21:11:34 19° NW 21:13:59 10° NNE
H-2A R/B 4.0 21:09:51 10° E 21:12:05 14° ENE 21:14:16 10° NE
APEX 4.1 21:11:48 10° SSE 21:14:59 29° ESE 21:18:55 10° NE
Cosmos 2154 Rocket 4.3 21:10:05 10° SSE 21:15:58 46° E 21:21:50 10° NNE
Cosmos 1939 Rocket 4.4 21:15:00 12° ESE 21:17:13 18° ENE 21:19:57 10° NNE
Intelsat 3F5 C 4.2 21:15:23 10° W 21:18:50 67° S 21:21:21 16° ESE
Abrixas 2.3 21:17:13 10° SW 21:20:13 72° SE 21:23:16 10° NE
Cosmos 407 Rocket 3.6 21:15:06 10° N 21:20:21 61° ENE 21:25:37 10° SSE
Cosmos 2184 Rocket 4.3 21:15:46 10° SSW 21:21:53 72° W 21:28:04 10° N
COSMOS 2487 4.0 21:21:31 10° NNE 21:24:23 22° ENE 21:25:58 17° ESE
Cosmos 1238 Rocket 4.1 21:21:51 10° NNE 21:24:52 23° E 21:26:52 16° ESE
Cosmos 2082 Rocket 4.1 21:25:29 10° NNE 21:28:16 14° ENE 21:30:58 10° E
Cosmos 1452 Rocket 3.8 21:25:44 10° SSW 21:30:58 74° WNW 21:36:16 10° NNE
CENTAUR R/B 3.9 21:24:11 10° NW 21:31:57 52° WSW 21:39:54 10° S
Lacrosse 5 3.1 21:31:12 10° SSE 21:34:42 19° ESE 21:38:14 10° ENE
Cosmos 1184 Rocket 3.0 21:32:55 12° SSE 21:35:51 46° E 21:39:04 10° NNE
Cosmos 1190 Rocket 4.3 21:32:51 10° NNW 21:38:01 70° WSW 21:43:11 10° S
Intercosmos 25 4.4 21:38:00 21° E 21:38:05 21° E 21:40:37 10° NE
Cosmos 2297 3.8 21:36:47 10° S 21:42:17 53° ESE 21:47:51 10° NNE
Cosmos 1674 Rocket 3.8 21:38:05 10° N 21:42:31 71° W 21:46:53 10° S
H-2A R/B 3.5 21:43:29 10° W 21:47:25 68° S 22:11:13 10° E
CZ-3A R/B 3.8 21:27:35 10° W 21:48:27 46° SSW 21:51:21 23° SE
Okean 2 Rocket 3.2 21:47:09 17° SSE 21:50:25 53° E 21:54:43 10° NNE
Cosmos 1782 Rocket 3.5 21:50:47 10° S 21:55:13 78° E 21:59:43 10° N
Cosmos 1606 2.8 21:52:53 10° N 21:56:50 78° W 21:59:21 21° S
CZ-4 DEB 3.5 21:55:35 19° S 21:57:35 50° W 22:00:41 10° NNW
NOSS 8 (E) 4.4 21:56:08 10° SSW 21:59:40 61° ESE 22:03:07 10° NE
EO 1 Delta rocket 3.9 21:55:43 10° N 22:01:11 81° E 22:05:29 12° S
USA 186 4.3 22:00:01 10° SW 22:02:22 20° W 22:04:51 10° NW
ALOS 4.2 21:59:22 10° SSW 22:03:16 26° W 22:07:12 10° NW
Cosmos 1242 Rocket 3.1 22:01:09 10° N 22:04:40 41° E 22:04:46 40° E
Cosmos 1862 4.4 22:01:12 10° SSW 22:05:06 46° W 22:09:02 10° N
Cosmos 1174 4.0 22:04:24 10° NW 22:07:16 41° WSW 22:07:52 35° SSW
Cosmos 1850 Rocket 4.5 22:02:46 10° N 22:07:52 44° ENE 22:09:24 35° ESE
Cosmos 676 Rocket 4.4 22:04:14 10° NNW 22:09:21 60° WSW 22:12:56 20° S
COS B Rocket 3.1 22:05:54 10° N 22:09:37 74° W 22:10:45 39° SSW
ARGOS 4.3 22:09:05 24° E 22:09:55 24° ENE 22:14:09 10° NNE
YAOGAN 6 4.0 22:10:46 24° NE 22:10:46 24° NE 22:13:03 10° NNE
Lacrosse 5 rocket 1.1 22:07:14 10° SSW 22:11:13 59° SE 22:15:01 10° NE
Cosmos 2218 Rocket 4.2 22:08:11 28° SSE 22:11:21 50° E 22:17:29 10° NNE
Cosmos 1954 Rocket 4.1 22:06:38 10° NNW 22:11:51 77° WSW 22:14:41 28° S
OAO 3 Rocket 3.5 22:07:30 10° W 22:12:26 67° N 22:15:30 23° ENE
GPS 2-05 Rocket1 3.8 22:09:08 10° WNW 22:12:44 45° N 22:13:49 34° NE
Cosmos 1408 3.9 22:09:19 10° SSW 22:12:45 39° W 22:16:11 10° N
Nadezhda 3 Rocket 4.2 22:06:58 10° N 22:13:19 76° W 22:18:31 16° S
ATLAS 2A CENTAUR R/B 2.7 22:12:01 10° WSW 22:12:54 15° SW 22:12:54 15° SW
Cosmos 1975 Rocket 2.9 22:10:38 10° N 22:14:58 78° E 22:16:09 47° SSE
DNEPR-1 R/B 3.9 22:10:28 10° NNW 22:15:24 54° ENE 22:16:17 46° E
ATLAS 5 CENTAUR R/B 4.5 22:12:45 10° WNW 22:17:19 21° WSW 22:22:00 10° SSW
Cosmos 1959 Rocket 4.5 22:16:51 32° SSE 22:19:37 59° E 22:25:35 10° NNE
Meteor 1-27 Rocket 4.5 22:17:02 10° NNW 22:22:20 49° W 22:26:44 15° SSW
Cosmos 1378 Rocket 4.3 22:18:43 10° NNW 22:22:53 48° W 22:25:11 24° SSW
Cosmos 1023 Rocket 4.4 22:18:52 10° NNW 22:24:00 90° W 22:25:37 45° SSE
Cosmos 1331 Rocket 4.4 22:27:09 41° E 22:27:09 41° E 22:31:23 10° NNE
Cosmos 1741 Rocket 3.9 22:24:53 10° NNW 22:30:06 71° ENE 22:31:03 57° SE
MetOp-A 4.0 22:31:18 52° SE 22:32:33 74° ENE 22:37:53 10° N
Cosmos 1110 Rocket 3.9 22:35:43 62° SE 22:36:05 64° ESE 22:41:15 10° NNE
Envisat 3.5 22:35:07 31° SSW 22:37:18 54° W 22:42:17 10° NNW
Meteor 1-20 Rocket 4.4 22:39:25 49° E 22:39:25 49° E 22:44:33 10° NNE
SEDSat Delta rocket 3.0 22:37:28 10° W 22:41:22 68° W 22:41:22 68° W
SL-8 Rocket 4.2 22:38:03 20° SSW 22:42:28 71° W 22:48:42 10° N
Cosmos 614 Rocket 3.7 22:37:35 10° NNW 22:42:41 87° ENE 22:43:08 74° SSE
Terra 3.7 22:44:32 18° NE 22:44:32 18° NE 22:46:41 10° NNE
Meteosat 1 Rocket2 4.4 22:38:35 10° W 22:44:07 49° SSW 22:45:16 46° SSE
Cosmos 1833 Rocket 2.9 22:39:25 10° N 22:44:52 49° ENE 22:45:06 49° ENE
USA 245 4.4 22:46:36 36° NNE 22:46:36 36° NNE 22:49:15 10° N
H-2A R/B 3.2 22:46:49 33° SW 22:47:44 37° W 22:51:41 10° NNW
Atlas Centaur 2 3.8 22:52:03 10° WSW 22:52:19 11° WSW 22:52:19 11° WSW
Timation 1 Rocket 4.5 22:49:55 17° SSW 22:54:36 73° WNW 23:00:37 10° NNE
Cosmos 2151 Rocket 4.0 22:56:55 57° W 22:57:08 58° W 23:01:36 10° N
Meteor 1-25 Rocket 4.2 22:58:34 65° SSW 22:59:30 86° W 23:05:21 10° N
Meteor 1-17 Rocket 4.5 23:00:08 85° ESE 23:00:12 85° E 23:05:44 10° N
USA 234 4.5 22:55:30 10° NE 22:58:07 24° ENE 22:58:07 24° ENE
Timation 2 Rocket 4.3 22:57:07 10° NNW 23:02:53 52° WSW 23:04:05 45° SW
SPOT 5 3.9 23:02:47 38° SW 23:03:59 44° W 23:09:05 10° NNW
CZ-4B R/B 3.8 23:03:09 10° N 23:07:54 56° WNW 23:08:19 54° W
Cosmos 2082 Rocket 2.3 23:07:13 10° NNW 23:12:49 70° WSW 23:12:49 70° WSW
Lacrosse 5 2.6 23:12:22 10° SW 23:17:17 50° NW 23:22:15 10° NNE
H-2A R/B 2.8 23:20:50 47° NNE 23:20:50 47° NNE 23:24:50 10° N
Lacrosse 5 rocket 4.4 23:48:54 10° WNW 23:50:41 13° NW 23:52:25 10° NNW
Cosmos 2369 Rocket 3.6 23:55:52 32° NNE 23:55:52 32° NNE 23:58:46 10° NNE
